Time,TemperatureF,DewpointF,PressureIn,WindDirection,WindDirectionDegrees,WindSpeedMPH,WindSpeedGustMPH,Humidity,HourlyPrecipIn,Conditions,Clouds,dailyrainin,SoftwareType,DateUTC
2013-01-16 00:02:00,16.0,14.0,31.38,NNW,333,0.0,1.0,91,0.00,,,0.00,,2013-01-16 07:02:00,
2013-01-16 00:11:00,16.0,14.0,31.38,NNW,333,0.0,1.0,91,0.00,,,0.00,,2013-01-16 07:11:00,
2013-01-16 00:22:00,16.0,14.0,31.37,NNW,333,1.0,2.0,92,0.00,,,0.00,,2013-01-16 07:22:00,
2013-01-16 00:32:00,17.0,15.0,31.37,NNW,332,0.0,2.0,92,0.00,,,0.00,,2013-01-16 07:32:00,
2013-01-16 00:42:00,17.0,15.0,31.37,NNW,332,0.0,2.0,92,0.00,,,0.00,,2013-01-16 07:42:00,
2013-01-16 00:52:00,17.0,15.0,31.36,NNW,332,0.0,1.0,92,0.00,,,0.00,,2013-01-16 07:52:00,
2013-01-16 01:02:00,17.0,15.0,31.36,NNW,332,0.0,1.0,92,0.00,,,0.00,,2013-01-16 08:02:00,
2013-01-16 01:11:00,17.0,15.0,31.36,NNW,332,0.0,1.0,92,0.00,,,0.00,,2013-01-16 08:11:00,
2013-01-16 01:22:00,17.0,15.0,31.37,NNW,332,0.0,0.0,92,0.00,,,0.00,,2013-01-16 08:22:00,
2013-01-16 01:32:00,17.0,15.0,31.36,NNW,332,0.0,1.0,92,0.00,,,0.00,,2013-01-16 08:32:00,
2013-01-16 01:42:00,17.0,15.0,31.36,NNW,332,0.0,1.0,92,0.00,,,0.00,,2013-01-16 08:42:00,
2013-01-16 01:52:00,16.0,14.0,31.36,NNW,332,0.0,0.0,92,0.00,,,0.00,,2013-01-16 08:52:00,
2013-01-16 02:02:00,16.0,14.0,31.36,NNW,332,0.0,1.0,92,0.00,,,0.00,,2013-01-16 09:02:00,
2013-01-16 02:11:00,16.0,14.0,31.36,NNW,332,0.0,1.0,92,0.00,,,0.00,,2013-01-16 09:11:00,
2013-01-16 02:22:00,17.0,15.0,31.36,NNW,332,0.0,2.0,92,0.00,,,0.00,,2013-01-16 09:22:00,
2013-01-16 02:32:00,16.0,14.0,31.36,NNW,332,0.0,0.0,92,0.00,,,0.00,,2013-01-16 09:32:00,
2013-01-16 02:42:00,16.0,14.0,31.36,NNW,332,0.0,0.0,92,0.00,,,0.00,,2013-01-16 09:42:00,
2013-01-16 02:52:00,16.0,14.0,31.37,NNW,332,0.0,2.0,92,0.00,,,0.00,,2013-01-16 09:52:00,
2013-01-16 03:02:00,16.0,14.0,31.37,NNW,332,0.0,2.0,92,0.00,,,0.00,,2013-01-16 10:02:00,
2013-01-16 03:11:00,16.0,14.0,31.37,NNW,332,0.0,2.0,92,0.00,,,0.00,,2013-01-16 10:11:00,
2013-01-16 03:22:00,16.0,14.0,31.37,NNW,332,0.0,2.0,92,0.00,,,0.00,,2013-01-16 10:22:00,
2013-01-16 03:32:00,16.0,14.0,31.37,NNW,332,0.0,0.0,92,0.00,,,0.00,,2013-01-16 10:32:00,
2013-01-16 03:42:00,16.0,14.0,31.37,NNW,332,0.0,0.0,92,0.00,,,0.00,,2013-01-16 10:42:00,
2013-01-16 03:52:00,16.0,14.0,31.38,NNW,332,0.0,2.0,91,0.00,,,0.00,,2013-01-16 10:52:00,
2013-01-16 04:02:00,15.0,13.0,31.38,NW,314,1.0,3.0,91,0.00,,,0.00,,2013-01-16 11:02:00,
2013-01-16 04:11:00,15.0,13.0,31.38,NW,314,1.0,3.0,91,0.00,,,0.00,,2013-01-16 11:11:00,
2013-01-16 04:22:00,15.0,13.0,31.37,NW,313,1.0,3.0,91,0.00,,,0.00,,2013-01-16 11:22:00,
2013-01-16 04:32:00,15.0,13.0,31.37,NW,311,0.0,3.0,91,0.00,,,0.00,,2013-01-16 11:32:00,
2013-01-16 04:42:00,15.0,13.0,31.37,NW,311,0.0,3.0,91,0.00,,,0.00,,2013-01-16 11:42:00,
2013-01-16 04:52:00,15.0,13.0,31.38,NW,311,0.0,2.0,91,0.00,,,0.00,,2013-01-16 11:52:00,
2013-01-16 05:02:00,15.0,13.0,31.37,NW,311,0.0,1.0,92,0.00,,,0.00,,2013-01-16 12:02:00,
2013-01-16 05:12:00,15.0,13.0,31.37,NW,311,0.0,1.0,92,0.00,,,0.00,,2013-01-16 12:12:00,
2013-01-16 05:22:00,14.0,12.0,31.37,NW,311,0.0,2.0,91,0.00,,,0.00,,2013-01-16 12:22:00,
2013-01-16 05:33:00,14.0,12.0,31.37,NW,312,0.0,2.0,91,0.00,,,0.00,,2013-01-16 12:33:00,
2013-01-16 05:42:00,14.0,12.0,31.37,NW,312,0.0,2.0,91,0.00,,,0.00,,2013-01-16 12:42:00,
2013-01-16 05:52:00,14.0,12.0,31.37,NW,312,0.0,1.0,91,0.00,,,0.00,,2013-01-16 12:52:00,
2013-01-16 06:02:00,14.0,12.0,31.37,NW,312,0.0,1.0,91,0.00,,,0.00,,2013-01-16 13:02:00,
2013-01-16 06:12:00,14.0,12.0,31.37,NW,312,0.0,1.0,91,0.00,,,0.00,,2013-01-16 13:12:00,
2013-01-16 06:22:00,14.0,12.0,31.36,NW,313,0.0,2.0,92,0.00,,,0.00,,2013-01-16 13:22:00,
2013-01-16 06:32:00,14.0,12.0,31.36,NW,313,0.0,2.0,92,0.00,,,0.00,,2013-01-16 13:32:00,
2013-01-16 06:42:00,14.0,12.0,31.36,NW,313,0.0,2.0,92,0.00,,,0.00,,2013-01-16 13:42:00,
2013-01-16 06:52:00,14.0,12.0,31.36,NW,313,0.0,0.0,92,0.00,,,0.00,,2013-01-16 13:52:00,
2013-01-16 07:02:00,15.0,13.0,31.36,NNW,327,1.0,3.0,92,0.00,,,0.00,,2013-01-16 14:02:00,
2013-01-16 07:12:00,15.0,13.0,31.36,NNW,327,1.0,3.0,92,0.00,,,0.00,,2013-01-16 14:12:00,
2013-01-16 07:22:00,15.0,13.0,31.36,NW,323,0.0,2.0,92,0.00,,,0.00,,2013-01-16 14:22:00,
2013-01-16 07:32:00,14.0,12.0,31.35,NW,323,0.0,1.0,91,0.00,,,0.00,,2013-01-16 14:32:00,
2013-01-16 07:42:00,14.0,12.0,31.35,NW,323,0.0,1.0,91,0.00,,,0.00,,2013-01-16 14:42:00,
2013-01-16 07:52:00,13.0,11.0,31.35,NW,323,0.0,0.0,90,0.00,,,0.00,,2013-01-16 14:52:00,
2013-01-16 08:02:00,13.0,11.0,31.36,NW,323,0.0,1.0,90,0.00,,,0.00,,2013-01-16 15:02:00,
2013-01-16 08:12:00,13.0,11.0,31.36,NW,323,0.0,1.0,90,0.00,,,0.00,,2013-01-16 15:12:00,
2013-01-16 08:22:00,12.0,10.0,31.36,NW,323,0.0,0.0,90,0.00,,,0.00,,2013-01-16 15:22:00,
2013-01-16 08:32:00,12.0,10.0,31.37,NW,323,0.0,2.0,90,0.00,,,0.00,,2013-01-16 15:32:00,
2013-01-16 08:42:00,12.0,10.0,31.37,NW,323,0.0,2.0,90,0.00,,,0.00,,2013-01-16 15:42:00,
2013-01-16 08:52:00,12.0,10.0,31.37,NW,323,0.0,0.0,91,0.00,,,0.00,,2013-01-16 15:52:00,
2013-01-16 09:03:00,12.0,10.0,31.37,NW,323,0.0,1.0,91,0.00,,,0.00,,2013-01-16 16:03:00,
2013-01-16 09:11:00,12.0,10.0,31.37,NW,323,0.0,1.0,91,0.00,,,0.00,,2013-01-16 16:11:00,
2013-01-16 09:22:00,12.0,10.0,31.37,NW,320,0.0,2.0,91,0.00,,,0.00,,2013-01-16 16:22:00,
2013-01-16 09:32:00,13.0,11.0,31.38,NW,320,0.0,1.0,92,0.00,,,0.00,,2013-01-16 16:32:00,
2013-01-16 09:42:00,13.0,11.0,31.38,NW,320,0.0,1.0,92,0.00,,,0.00,,2013-01-16 16:42:00,
2013-01-16 09:52:00,14.0,12.0,31.38,NW,320,0.0,0.0,93,0.00,,,0.00,,2013-01-16 16:52:00,
2013-01-16 10:02:00,14.0,12.0,31.39,NNW,336,1.0,3.0,92,0.00,,,0.00,,2013-01-16 17:02:00,
2013-01-16 10:12:00,14.0,12.0,31.39,NNW,336,1.0,3.0,92,0.00,,,0.00,,2013-01-16 17:12:00,
2013-01-16 10:22:00,14.0,12.0,31.39,NNW,343,1.0,4.0,92,0.00,,,0.00,,2013-01-16 17:22:00,
2013-01-16 10:33:00,14.0,12.0,31.39,NNE,28,1.0,4.0,92,0.00,,,0.00,,2013-01-16 17:33:00,
2013-01-16 10:43:00,14.0,12.0,31.39,NNE,28,1.0,4.0,92,0.00,,,0.00,,2013-01-16 17:43:00,
2013-01-16 10:52:00,15.0,13.0,31.40,NNE,17,0.0,2.0,92,0.00,,,0.00,,2013-01-16 17:52:00,
2013-01-16 11:02:00,16.0,14.0,31.40,NNE,17,0.0,1.0,93,0.00,,,0.00,,2013-01-16 18:02:00,
2013-01-16 11:12:00,16.0,14.0,31.40,NNE,17,0.0,1.0,93,0.00,,,0.00,,2013-01-16 18:12:00,
2013-01-16 11:22:00,17.0,15.0,31.41,NNE,17,0.0,1.0,93,0.00,,,0.00,,2013-01-16 18:22:00,
2013-01-16 11:33:00,18.0,16.0,31.40,NNE,17,0.0,1.0,93,0.00,,,0.00,,2013-01-16 18:33:00,
2013-01-16 11:42:00,18.0,16.0,31.40,NNE,17,0.0,1.0,93,0.00,,,0.00,,2013-01-16 18:42:00,
2013-01-16 11:52:00,19.0,17.0,31.40,NNE,17,0.0,0.0,93,0.00,,,0.00,,2013-01-16 18:52:00,
2013-01-16 12:02:00,20.0,19.0,31.40,NNE,17,0.0,1.0,94,0.00,,,0.00,,2013-01-16 19:02:00,
2013-01-16 12:12:00,20.0,19.0,31.40,NNE,17,0.0,1.0,94,0.00,,,0.00,,2013-01-16 19:12:00,
2013-01-16 12:22:00,22.0,20.0,31.40,NNE,17,0.0,2.0,93,0.00,,,0.00,,2013-01-16 19:22:00,
2013-01-16 12:32:00,22.0,20.0,31.40,NNE,17,0.0,2.0,92,0.00,,,0.00,,2013-01-16 19:32:00,
2013-01-16 12:42:00,22.0,20.0,31.40,NNE,17,0.0,2.0,92,0.00,,,0.00,,2013-01-16 19:42:00,
2013-01-16 12:52:00,22.0,20.0,31.39,NNE,17,1.0,2.0,91,0.00,,,0.00,,2013-01-16 19:52:00,
2013-01-16 13:02:00,23.0,21.0,31.39,NNW,333,0.0,3.0,92,0.00,,,0.00,,2013-01-16 20:02:00,
2013-01-16 13:11:00,23.0,21.0,31.39,NNW,333,0.0,3.0,92,0.00,,,0.00,,2013-01-16 20:11:00,
2013-01-16 13:22:00,23.0,21.0,31.38,NW,321,1.0,3.0,91,0.00,,,0.00,,2013-01-16 20:22:00,
2013-01-16 13:33:00,23.0,21.0,31.38,NW,321,1.0,4.0,92,0.00,,,0.00,,2013-01-16 20:33:00,
2013-01-16 13:42:00,23.0,21.0,31.38,NW,321,1.0,4.0,92,0.00,,,0.00,,2013-01-16 20:42:00,
2013-01-16 13:52:00,23.0,21.0,31.38,NW,321,0.0,1.0,91,0.00,,,0.00,,2013-01-16 20:52:00,
2013-01-16 14:02:00,24.0,22.0,31.37,NW,321,0.0,2.0,91,0.00,,,0.00,,2013-01-16 21:02:00,
2013-01-16 14:12:00,24.0,22.0,31.37,NW,321,0.0,2.0,91,0.00,,,0.00,,2013-01-16 21:12:00,
2013-01-16 14:22:00,25.0,22.0,31.37,NNE,13,0.0,2.0,90,0.01,,,0.01,,2013-01-16 21:22:00,
2013-01-16 14:32:00,25.0,22.0,31.37,NNE,13,0.0,2.0,90,0.01,,,0.01,,2013-01-16 21:32:00,
2013-01-16 14:42:00,25.0,22.0,31.37,NNE,13,0.0,2.0,90,0.01,,,0.01,,2013-01-16 21:42:00,
2013-01-16 14:52:00,27.0,24.0,31.37,North,10,0.0,1.0,88,0.01,,,0.01,,2013-01-16 21:52:00,
2013-01-16 15:02:00,29.0,25.0,31.37,North,10,0.0,1.0,84,0.01,,,0.01,,2013-01-16 22:02:00,
2013-01-16 15:12:00,29.0,25.0,31.37,North,10,0.0,1.0,84,0.01,,,0.01,,2013-01-16 22:12:00,
2013-01-16 15:22:00,28.0,23.0,31.37,North,10,0.0,1.0,82,0.01,,,0.02,,2013-01-16 22:22:00,
2013-01-16 15:32:00,27.0,23.0,31.36,North,10,0.0,0.0,84,0.01,,,0.02,,2013-01-16 22:32:00,
2013-01-16 15:42:00,27.0,23.0,31.36,North,10,0.0,0.0,84,0.01,,,0.02,,2013-01-16 22:42:00,
2013-01-16 15:52:00,27.0,23.0,31.36,North,10,0.0,1.0,84,0.01,,,0.02,,2013-01-16 22:52:00,
2013-01-16 16:02:00,27.0,23.0,31.36,North,10,0.0,1.0,85,0.01,,,0.02,,2013-01-16 23:02:00,
2013-01-16 16:12:00,27.0,23.0,31.36,North,10,0.0,1.0,85,0.01,,,0.02,,2013-01-16 23:12:00,
2013-01-16 16:22:00,27.0,23.0,31.36,North,10,0.0,1.0,85,0.00,,,0.02,,2013-01-16 23:22:00,
2013-01-16 16:32:00,28.0,24.0,31.36,North,10,0.0,0.0,85,0.01,,,0.03,,2013-01-16 23:32:00,
2013-01-16 16:42:00,28.0,24.0,31.36,North,10,0.0,0.0,85,0.01,,,0.03,,2013-01-16 23:42:00,
2013-01-16 16:52:00,28.0,24.0,31.41,North,10,0.0,0.0,83,0.01,,,0.03,,2013-01-16 23:52:00,
2013-01-16 17:02:00,27.0,22.0,31.42,North,10,0.0,2.0,82,0.01,,,0.03,,2013-01-17 00:02:00,
2013-01-16 17:11:00,27.0,22.0,31.42,North,10,0.0,2.0,82,0.01,,,0.03,,2013-01-17 00:11:00,
2013-01-16 17:22:00,26.0,22.0,31.42,North,10,0.0,1.0,85,0.01,,,0.03,,2013-01-17 00:22:00,
2013-01-16 17:32:00,26.0,22.0,31.42,North,10,0.0,0.0,85,0.00,,,0.03,,2013-01-17 00:32:00,
2013-01-16 17:42:00,26.0,22.0,31.42,North,10,0.0,0.0,85,0.00,,,0.03,,2013-01-17 00:42:00,
2013-01-16 17:52:00,26.0,22.0,31.42,North,10,0.0,0.0,86,0.00,,,0.03,,2013-01-17 00:52:00,
2013-01-16 18:02:00,25.0,21.0,31.41,North,10,0.0,0.0,86,0.00,,,0.03,,2013-01-17 01:02:00,
2013-01-16 18:11:00,25.0,21.0,31.41,North,10,0.0,0.0,86,0.00,,,0.03,,2013-01-17 01:11:00,
2013-01-16 18:22:00,25.0,22.0,31.41,North,10,0.0,0.0,87,0.00,,,0.03,,2013-01-17 01:22:00,
2013-01-16 18:32:00,24.0,21.0,31.41,North,10,0.0,1.0,87,0.00,,,0.03,,2013-01-17 01:32:00,
2013-01-16 18:42:00,24.0,21.0,31.41,North,10,0.0,1.0,87,0.00,,,0.03,,2013-01-17 01:42:00,
2013-01-16 18:52:00,23.0,20.0,31.41,North,10,0.0,1.0,88,0.00,,,0.03,,2013-01-17 01:52:00,
2013-01-16 19:02:00,23.0,20.0,31.42,North,10,0.0,0.0,89,0.00,,,0.03,,2013-01-17 02:02:00,
2013-01-16 19:12:00,23.0,20.0,31.42,North,10,0.0,0.0,89,0.00,,,0.03,,2013-01-17 02:12:00,
2013-01-16 19:22:00,23.0,20.0,31.41,North,10,0.0,0.0,89,0.00,,,0.03,,2013-01-17 02:22:00,
2013-01-16 19:32:00,22.0,19.0,31.42,North,10,0.0,0.0,89,0.00,,,0.03,,2013-01-17 02:32:00,
2013-01-16 19:42:00,22.0,19.0,31.42,North,10,0.0,0.0,89,0.00,,,0.03,,2013-01-17 02:42:00,
2013-01-16 19:52:00,22.0,19.0,31.42,North,10,0.0,0.0,89,0.00,,,0.03,,2013-01-17 02:52:00,
2013-01-16 20:02:00,21.0,19.0,31.42,North,9,1.0,4.0,90,0.00,,,0.03,,2013-01-17 03:02:00,
2013-01-16 20:11:00,21.0,19.0,31.42,North,9,1.0,4.0,90,0.00,,,0.03,,2013-01-17 03:11:00,
2013-01-16 20:22:00,20.0,18.0,31.42,North,9,0.0,0.0,90,0.00,,,0.03,,2013-01-17 03:22:00,
2013-01-16 20:32:00,20.0,18.0,31.42,North,9,0.0,1.0,90,0.00,,,0.03,,2013-01-17 03:32:00,
2013-01-16 20:42:00,20.0,18.0,31.42,North,9,0.0,1.0,90,0.00,,,0.03,,2013-01-17 03:42:00,
2013-01-16 20:52:00,19.0,17.0,31.43,WNW,294,0.0,2.0,90,0.00,,,0.03,,2013-01-17 03:52:00,
2013-01-16 21:02:00,19.0,17.0,31.43,WNW,294,0.0,1.0,90,0.00,,,0.03,,2013-01-17 04:02:00,
2013-01-16 21:12:00,18.0,16.0,31.43,WNW,294,0.0,1.0,91,0.00,,,0.03,,2013-01-17 04:12:00,
2013-01-16 21:22:00,18.0,16.0,31.43,WNW,294,0.0,1.0,91,0.00,,,0.03,,2013-01-17 04:22:00,
2013-01-16 21:32:00,18.0,16.0,31.43,WNW,294,0.0,1.0,91,0.00,,,0.03,,2013-01-17 04:32:00,
2013-01-16 21:42:00,18.0,16.0,31.43,WNW,294,0.0,1.0,91,0.00,,,0.03,,2013-01-17 04:42:00,
2013-01-16 21:52:00,17.0,15.0,31.44,WNW,294,0.0,2.0,91,0.00,,,0.03,,2013-01-17 04:52:00,
2013-01-16 22:04:00,17.0,15.0,31.44,WNW,294,0.0,1.0,91,0.00,,,0.03,,2013-01-17 05:04:00,
2013-01-16 22:12:00,17.0,15.0,31.44,WNW,294,0.0,1.0,91,0.00,,,0.03,,2013-01-17 05:12:00,
2013-01-16 22:22:00,17.0,15.0,31.44,WNW,294,0.0,0.0,91,0.00,,,0.03,,2013-01-17 05:22:00,
2013-01-16 22:32:00,16.0,14.0,31.44,WNW,294,0.0,2.0,91,0.00,,,0.03,,2013-01-17 05:32:00,
2013-01-16 22:42:00,16.0,14.0,31.44,WNW,294,0.0,2.0,91,0.00,,,0.03,,2013-01-17 05:42:00,
2013-01-16 22:52:00,15.0,13.0,31.44,WNW,294,0.0,0.0,91,0.00,,,0.03,,2013-01-17 05:52:00,
2013-01-16 23:02:00,15.0,13.0,31.45,WNW,294,0.0,0.0,91,0.00,,,0.03,,2013-01-17 06:02:00,
2013-01-16 23:11:00,15.0,13.0,31.45,WNW,294,0.0,0.0,91,0.00,,,0.03,,2013-01-17 06:11:00,
2013-01-16 23:22:00,15.0,13.0,31.44,WNW,294,0.0,0.0,91,0.00,,,0.03,,2013-01-17 06:22:00,
2013-01-16 23:32:00,14.0,12.0,31.44,WNW,294,0.0,1.0,91,0.00,,,0.03,,2013-01-17 06:32:00,
2013-01-16 23:42:00,14.0,12.0,31.44,WNW,294,0.0,1.0,91,0.00,,,0.03,,2013-01-17 06:42:00,
2013-01-16 23:52:00,14.0,12.0,31.45,WNW,294,0.0,2.0,91,0.00,,,0.03,,2013-01-17 06:52:00,